| time (UTC) | temp F | wind direction | speed MPH | gust MPH | rain 1hr in | rain 24hr in | rain mn in | humidity % | barometer mb |
| 20260508033039 | 46 | 65 | 1.0 | 3.0 | 0.00 | 0.85 | 0.00 | 96 | 1001.8 |
| 20260508031536 | 46 | 65 | 2.0 | 6.0 | 0.00 | 0.85 | 0.00 | 95 | 1002.0 |
| 20260508030047 | 46 | 70 | 1.0 | 8.0 | 0.00 | 0.85 | 0.85 | 94 | 1002.0 |
| 20260508024533 | 47 | 20 | 1.0 | 6.0 | 0.00 | 0.85 | 0.85 | 92 | 1002.3 |
| 20260508023025 | 51 | 85 | 12.0 | 16.0 | 0.00 | 0.85 | 0.85 | 89 | 1001.9 |
| 20260508021523 | 51 | 213 | 2.0 | 5.0 | 0.00 | 0.85 | 0.85 | 91 | 1001.8 |
| 20260508020021 | 52 | 242 | 4.0 | 7.0 | 0.00 | 0.85 | 0.85 | 91 | 1001.8 |
| 20260508014519 | 53 | 232 | 3.0 | 11.0 | 0.00 | 0.85 | 0.85 | 91 | 1001.5 |
| 20260508013018 | 53 | 216 | 7.0 | 10.0 | 0.00 | 0.85 | 0.85 | 92 | 1001.4 |
| 20260508011515 | 53 | 224 | 5.0 | 9.0 | 0.00 | 0.85 | 0.85 | 93 | 1001.0 |
| 20260508010022 | 52 | 239 | 5.0 | 11.0 | 0.00 | 0.85 | 0.85 | 93 | 1001.2 |
| 20260508004514 | 53 | 223 | 2.0 | 8.0 | 0.00 | 0.85 | 0.85 | 94 | 1001.3 |
| 20260508003012 | 53 | 250 | 4.0 | 7.0 | 0.00 | 0.85 | 0.85 | 93 | 1001.4 |
| 20260508001511 | 53 | 267 | 2.0 | 8.0 | 0.00 | 0.85 | 0.85 | 94 | 1001.3 |
| 20260508000010 | 53 | 265 | 1.0 | 6.0 | 0.00 | 0.85 | 0.85 | 94 | 1001.4 |
| 20260507234509 | 53 | 265 | 0.0 | 3.0 | 0.00 | 0.85 | 0.85 | 93 | 1001.3 |
| 20260507233008 | 54 | 250 | 1.0 | 7.0 | 0.00 | 0.85 | 0.85 | 92 | 1001.3 |
| 20260507231514 | 54 | 262 | 5.0 | 8.0 | 0.00 | 0.85 | 0.85 | 92 | 1001.4 |
| 20260507230006 | 54 | 228 | 1.0 | 7.0 | 0.00 | 0.85 | 0.85 | 92 | 1001.5 |
| 20260507224506 | 54 | 292 | 3.0 | 7.0 | 0.00 | 0.85 | 0.85 | 92 | 1001.4 |
| 20260507223008 | 54 | 280 | 2.0 | 8.0 | 0.00 | 0.85 | 0.85 | 92 | 1001.2 |
| 20260507221507 | 54 | 247 | 4.0 | 13.0 | 0.00 | 0.85 | 0.85 | 92 | 1001.5 |
| 20260507220003 | 55 | 271 | 3.0 | 8.0 | 0.00 | 0.85 | 0.85 | 93 | 1001.8 |
| 20260507214503 | 55 | 215 | 2.0 | 9.0 | 0.01 | 0.85 | 0.85 | 95 | 1001.7 |
| 20260507213002 | 54 | 243 | 1.0 | 11.0 | 0.03 | 0.85 | 0.85 | 94 | 1001.5 |
| 20260507211501 | 54 | 206 | 8.0 | 14.0 | 0.10 | 0.85 | 0.85 | 94 | 1002.3 |
| 20260507210100 | 54 | 253 | 6.0 | 19.0 | 0.17 | 0.85 | 0.85 | 94 | 1001.2 |
| 20260507204601 | 54 | 302 | 5.0 | 13.0 | 0.22 | 0.84 | 0.84 | 94 | 1001.5 |
| 20260507203055 | 54 | 242 | 4.0 | 16.0 | 0.28 | 0.82 | 0.82 | 94 | 1001.9 |
| 20260507201601 | 55 | 277 | 5.0 | 17.0 | 0.28 | 0.75 | 0.75 | 94 | 1002.3 |
| 20260507200053 | 54 | 219 | 2.0 | 7.0 | 0.28 | 0.68 | 0.68 | 94 | 1002.7 |
| 20260507194646 | 55 | 248 | 5.0 | 12.0 | 0.28 | 0.62 | 0.62 | 94 | 1003.3 |
| 20260507193042 | 55 | 253 | 4.0 | 10.0 | 0.32 | 0.54 | 0.54 | 94 | 1003.7 |
| 20260507191547 | 56 | 230 | 6.0 | 11.0 | 0.33 | 0.46 | 0.46 | 94 | 1003.8 |
| 20260507190037 | 56 | 247 | 1.0 | 9.0 | 0.31 | 0.40 | 0.40 | 93 | 1003.8 |
| 20260507184548 | 57 | 251 | 4.0 | 14.0 | 0.25 | 0.34 | 0.34 | 93 | 1004.1 |
| 20260507183042 | 57 | 267 | 5.0 | 11.0 | 0.12 | 0.20 | 0.20 | 93 | 1004.3 |
| 20260507181536 | 58 | 186 | 2.0 | 12.0 | 0.04 | 0.13 | 0.13 | 92 | 1004.3 |
| 20260507180034 | 58 | 267 | 6.0 | 13.0 | 0.01 | 0.09 | 0.09 | 90 | 1003.9 |
| 20260507174535 | 59 | 251 | 6.0 | 17.0 | 0.00 | 0.09 | 0.09 | 87 | 1004.0 |
| 20260507173034 | 59 | 124 | 4.0 | 11.0 | 0.00 | 0.09 | 0.09 | 88 | 1003.8 |
| 20260507171531 | 60 | 236 | 3.0 | 10.0 | 0.00 | 0.09 | 0.09 | 86 | 1004.3 |
| 20260507170028 | 61 | 122 | 6.0 | 14.0 | 0.00 | 0.09 | 0.09 | 85 | 1004.4 |
| 20260507164526 | 60 | 109 | 3.0 | 14.0 | 0.00 | 0.09 | 0.09 | 85 | 1004.3 |
| 20260507163028 | 61 | 203 | 8.0 | 17.0 | 0.00 | 0.09 | 0.09 | 84 | 1004.8 |
| 20260507161524 | 61 | 181 | 4.0 | 11.0 | 0.00 | 0.09 | 0.09 | 84 | 1005.1 |
| 20260507160032 | 61 | 96 | 5.0 | 14.0 | 0.00 | 0.09 | 0.09 | 84 | 1005.4 |
| 20260507154546 | 61 | 329 | 5.0 | 15.0 | 0.00 | 0.09 | 0.09 | 84 | 1005.8 |
| 20260507153020 | 61 | 235 | 7.0 | 18.0 | 0.00 | 0.09 | 0.09 | 85 | 1005.9 |
| 20260507151520 | 60 | 315 | 7.0 | 17.0 | 0.00 | 0.09 | 0.09 | 85 | 1006.3 |
| 20260507150019 | 60 | 192 | 5.0 | 16.0 | 0.00 | 0.09 | 0.09 | 86 | 1006.7 |
| 20260507144515 | 60 | 128 | 3.0 | 19.0 | 0.00 | 0.09 | 0.09 | 86 | 1006.8 |
| 20260507143031 | 59 | 184 | 3.0 | 26.0 | 0.00 | 0.09 | 0.09 | 87 | 1007.5 |
| 20260507141513 | 59 | 119 | 3.0 | 12.0 | 0.00 | 0.09 | 0.09 | 87 | 1007.7 |
| 20260507140012 | 60 | 234 | 7.0 | 17.0 | 0.00 | 0.09 | 0.09 | 85 | 1008.0 |
| 20260507134512 | 62 | 351 | 5.0 | 12.0 | 0.00 | 0.09 | 0.09 | 84 | 1007.7 |
| 20260507133009 | 61 | 249 | 5.0 | 17.0 | 0.00 | 0.09 | 0.09 | 86 | 1008.1 |
| 20260507131510 | 61 | 268 | 8.0 | 17.0 | 0.00 | 0.09 | 0.09 | 86 | 1008.4 |
| 20260507130003 | 59 | 48 | 2.0 | 13.0 | 0.01 | 0.09 | 0.09 | 90 | 1008.4 |
| 20260507124501 | 58 | 240 | 6.0 | 18.0 | 0.03 | 0.09 | 0.09 | 91 | 1008.5 |
| 20260507123124 | 57 | 45 | 5.0 | 12.0 | 0.07 | 0.09 | 0.09 | 91 | 1008.6 |
| 20260507121559 | 57 | 258 | 3.0 | 25.0 | 0.09 | 0.09 | 0.09 | 92 | 1009.2 |
| 20260507120057 | 57 | 147 | 4.0 | 16.0 | 0.08 | 0.08 | 0.08 | 92 | 1009.6 |
| 20260507114558 | 57 | 52 | 5.0 | 16.0 | 0.06 | 0.06 | 0.06 | 92 | 1010.1 |
| 20260507113055 | 57 | 256 | 9.0 | 18.0 | 0.02 | 0.02 | 0.02 | 91 | 1010.4 |
| 20260507111554 | 58 | 356 | 4.0 | 14.0 | 0.00 | 0.00 | 0.00 | 89 | 1010.6 |
| 20260507110055 | 58 | 201 | 12.0 | 23.0 | 0.00 | 0.00 | 0.00 | 88 | 1010.1 |
| 20260507104558 | 58 | 143 | 15.0 | 28.0 | 0.00 | 0.00 | 0.00 | 89 | 1010.2 |
| 20260507103051 | 58 | 59 | 5.0 | 8.0 | 0.00 | 0.00 | 0.00 | 89 | 1010.6 |
| 20260507101551 | 57 | 213 | 3.0 | 13.0 | 0.00 | 0.00 | 0.00 | 91 | 1010.7 |
| 20260507100056 | 57 | 13 | 1.0 | 6.0 | 0.00 | 0.00 | 0.00 | 90 | 1011.4 |
| 20260507094548 | 57 | 242 | 0.0 | 8.0 | 0.00 | 0.00 | 0.00 | 90 | 1011.3 |
| 20260507093046 | 57 | 13 | 1.0 | 11.0 | 0.00 | 0.00 | 0.00 | 90 | 1011.7 |
| 20260507091545 | 56 | 118 | 4.0 | 16.0 | 0.00 | 0.00 | 0.00 | 90 | 1011.5 |
| 20260507090055 | 56 | 171 | 7.0 | 13.0 | 0.00 | 0.00 | 0.00 | 90 | 1011.6 |
| 20260507084550 | 56 | 182 | 6.0 | 15.0 | 0.00 | 0.00 | 0.00 | 90 | 1011.6 |
| 20260507083041 | 57 | 72 | 6.0 | 11.0 | 0.00 | 0.00 | 0.00 | 89 | 1011.3 |
| 20260507081638 | 57 | 198 | 4.0 | 11.0 | 0.00 | 0.00 | 0.00 | 90 | 1011.7 |
| 20260507080035 | 57 | 179 | 8.0 | 20.0 | 0.00 | 0.00 | 0.00 | 90 | 1011.9 |
| 20260507074533 | 58 | 141 | 9.0 | 14.0 | 0.00 | 0.00 | 0.00 | 90 | 1012.1 |
| 20260507073032 | 57 | 168 | 1.0 | 4.0 | 0.00 | 0.00 | 0.00 | 89 | 1012.3 |
| 20260507071534 | 57 | 82 | 1.0 | 4.0 | 0.00 | 0.00 | 0.00 | 88 | 1012.4 |
| 20260507070032 | 57 | 302 | 2.0 | 10.0 | 0.00 | 0.00 | 0.00 | 88 | 1012.6 |
| 20260507064535 | 57 | 118 | 0.0 | 4.0 | 0.00 | 0.00 | 0.00 | 85 | 1012.8 |
| 20260507063021 | 58 | 141 | 0.0 | 5.0 | 0.00 | 0.00 | 0.00 | 83 | 1013.1 |
| 20260507061520 | 58 | 268 | 4.0 | 16.0 | 0.00 | 0.00 | 0.00 | 83 | 1013.3 |
| 20260507060022 | 58 | 262 | 4.0 | 18.0 | 0.00 | 0.00 | 0.00 | 83 | 1013.4 |
| 20260507054517 | 58 | 323 | 7.0 | 17.0 | 0.00 | 0.00 | 0.00 | 82 | 1013.5 |
| 20260507053015 | 58 | 250 | 9.0 | 17.0 | 0.00 | 0.00 | 0.00 | 82 | 1013.7 |
| 20260507051512 | 58 | 303 | 11.0 | 24.0 | 0.00 | 0.00 | 0.00 | 81 | 1014.0 |
| 20260507050029 | 58 | 286 | 9.0 | 18.0 | 0.00 | 0.00 | 0.00 | 80 | 1014.3 |
| 20260507044506 | 58 | 263 | 6.0 | 12.0 | 0.00 | 0.00 | 0.00 | 79 | 1014.5 |
| 20260507043003 | 58 | 244 | 6.0 | 20.0 | 0.00 | 0.00 | 0.00 | 78 | 1014.7 |
| 20260507041501 | 58 | 219 | 4.0 | 12.0 | 0.00 | 0.00 | 0.00 | 79 | 1015.0 |
| 20260507040059 | 58 | 237 | 5.0 | 12.0 | 0.00 | 0.00 | 0.00 | 80 | 1015.0 |
| 20260507034557 | 59 | 261 | 3.0 | 15.0 | 0.00 | 0.00 | 0.00 | 79 | 1015.3 |